Starlink 3624

operational
NORAD ID: 51773 Int'l Des: 2022-017 Owner: SPXS Country: US Constellation: starlink
LEOCIRCULAR

Starlink 3624について

説明を読み込み中...

リアルタイム位置

3D地球を読み込み中...

次回通過

高度履歴

Altitude vs Time

uPlot chart will show altitude changes over time

軌道要素

1 51773U 22017F 25305.96246551 -.00000566 00000-0 -17475-4 0 9995
2 51773 53.2163 192.4823 0001383 103.5167 256.5980 15.08841934203320
Epoch: Nov 1, 2025 • Age: 35 hours

現在のステータス

高度 543.9 km
速度 7.59 km/s
衛星直下点 -13.48°S, 17.23°W
打ち上げ日 Feb 25, 2022
運用期間 3.6 years
タイプ internet

技術仕様

分類 Payload
質量 297.00 kg
乾燥質量 275.00 kg
総質量 297.00 kg
長さ 0.20 m
直径 2.80 m
スパン 9.00 m
形状 Box + pan
製造者 SPXS
バスタイプ Starlink
フェーズステータス In Orbit
所有者/国 SPXS/US

大規模コンステレーション

Loading constellations...